Page, AZ

8:46 PM MDT on April 30, 2017 (GMT -0600)
Page Municipal

Weather History for KPGA - September, 2013

Change the Weather History Date:

Friday, September 13, 2013

  Actual Average Record
Temperature  
Mean Temperature 72 °F -  
Max Temperature 82 °F 83 °F 99 °F (1990)
Min Temperature 61 °F 59 °F 44 °F (1988)
Cooling Degree Days 6    
Growing Degree Days 22 (Base 50)    
Moisture  
Dew Point 53 °F    
Average Humidity 52    
Maximum Humidity 81    
Minimum Humidity 23    
Precipitation  
Precipitation 0.00 in - - ()
Sea Level Pressure  
Sea Level Pressure 29.78 in    
Wind  
Wind Speed 2 mph (NNW)    
Max Wind Speed 7 mph    
Max Gust Speed -    
Visibility 10 miles    
Events      
Averages and records for this station are not official NWS values.
T = Trace of Precipitation, MM = Missing Value Source: NWS Daily Summary

Daily Weather History Graph

Daily Weather History Graph

Search for Another Location

Airport or City:

Trip Planner

Search our weather history database for the weather conditions in past years. The results will help you decide how hot, cold, wet, or windy it might be!

Date:

Astronomy

Sep. 13, 2013 Rise Set
Actual Time 6:06 AM MST 6:35 PM MST
Civil Twilight 5:40 AM MST 7:01 PM MST
Nautical Twilight 5:09 AM MST 7:32 PM MST
Astronomical Twilight 4:38 AM MST 8:03 PM MST
Moon 2:22 PM MST (9/13) No Moon Set
Length of Visible Light 13h 21m
Length of Day
12h 29m
Waxing Gibbous, 62% of the Moon is Illuminated
Sep 13
Waxing Gibbous
Sep 19
Full
Sep 26
Last Quarter
Oct 4
New
Oct 11
First Quarter

Hourly Weather History & Observations

Time (MST) Temp. Heat Index Dew Point Humidity Pressure Visibility Wind Dir Wind Speed Gust Speed Precip Events Conditions
12:53 AM 66.9 °F - 55.0 °F 66% 29.87 in 10.0 mi SW 4.6 mph - N/A   Clear
1:53 AM 64.0 °F - 55.9 °F 75% 29.87 in 10.0 mi Calm Calm - N/A   Clear
2:53 AM 64.0 °F - 55.0 °F 73% 29.85 in 10.0 mi Calm Calm - N/A   Clear
3:53 AM 63.0 °F - 55.0 °F 75% 29.85 in 10.0 mi Calm Calm - N/A   Clear
4:53 AM 62.1 °F - 55.0 °F 78% 29.84 in 10.0 mi Calm Calm - N/A   Clear
5:53 AM 61.0 °F - 55.0 °F 81% 29.85 in 10.0 mi Calm Calm - N/A   Clear
6:53 AM 64.0 °F - 55.9 °F 75% 29.86 in 10.0 mi South 3.5 mph - N/A   Clear
7:53 AM 66.9 °F - 54.0 °F 63% 29.87 in 10.0 mi Calm Calm - N/A   Clear
8:53 AM 69.1 °F - 55.0 °F 61% 29.87 in 10.0 mi Calm Calm - N/A   Clear
9:53 AM 73.0 °F - 54.0 °F 51% 29.85 in 10.0 mi North 5.8 mph - N/A   Clear
10:53 AM 75.0 °F - 54.0 °F 48% 29.83 in 10.0 mi North 5.8 mph - N/A   Clear
11:53 AM 77.0 °F - 54.0 °F 45% 29.81 in 10.0 mi Variable 4.6 mph - N/A   Clear
12:53 PM 79.0 °F - 52.0 °F 39% 29.78 in 10.0 mi Calm Calm - N/A   Clear
1:53 PM 81.0 °F 80.4 °F 53.1 °F 38% 29.75 in 10.0 mi NE 6.9 mph - N/A   Mostly Cloudy
2:53 PM 81.0 °F - 52.0 °F 36% 29.72 in 10.0 mi Calm Calm - N/A   Partly Cloudy
3:53 PM 82.0 °F - 51.1 °F 34% 29.70 in 10.0 mi Variable 4.6 mph - N/A   Clear
4:53 PM 82.9 °F - 51.1 °F 33% 29.69 in 10.0 mi Variable 4.6 mph - N/A   Mostly Cloudy
5:53 PM 80.1 °F 80.0 °F 54.0 °F 40% 29.69 in 10.0 mi ENE 3.5 mph - N/A   Scattered Clouds
6:53 PM 77.0 °F - 54.0 °F 45% 29.69 in 10.0 mi Calm Calm - N/A   Clear
7:53 PM 77.0 °F - 50.0 °F 39% 29.71 in 10.0 mi Calm Calm - N/A   Clear
8:53 PM 77.0 °F - 50.0 °F 39% 29.72 in 10.0 mi NW 5.8 mph - N/A   Clear
9:53 PM 73.9 °F - 53.1 °F 48% 29.73 in 10.0 mi West 4.6 mph - N/A   Partly Cloudy
10:53 PM 73.0 °F - 52.0 °F 48% 29.73 in 10.0 mi Calm Calm - N/A   Clear
11:53 PM 72.0 °F - 53.1 °F 51% 29.73 in 10.0 mi Calm Calm - N/A   Overcast